📊 Raw Sensor Data
Showing records 48951 to 48975 of 85,110 total
| ID | Distance (ft) | Battery V | Battery A | Int Temp (°F) | Int Humid (%) | Ext Temp (°F) | Solar V | RSSI | SNR | Time Stamp |
|---|---|---|---|---|---|---|---|---|---|---|
| 36172 | 14.9 | 4.03 | -5 | 47 | 40 | 49 | 0.00 | -88 | 6 | 03/28/2025 03:00 AM |
| 36171 | 15.0 | 3.97 | -5 | 45 | 41 | 48 | 0.00 | -86 | 8 | 03/28/2025 02:45 AM |
| 36170 | 15.0 | 3.97 | -5 | 44 | 41 | 46 | 0.00 | -85 | 8 | 03/28/2025 02:30 AM |
| 36169 | 15.0 | 4.03 | -5 | 45 | 41 | 45 | 0.00 | -88 | 8 | 03/28/2025 02:15 AM |
| 36168 | 15.0 | 3.97 | -5 | 45 | 41 | 46 | 0.00 | -87 | 7 | 03/28/2025 02:00 AM |
| 36167 | 15.0 | 3.98 | -5 | 46 | 41 | 48 | 0.00 | -89 | 7 | 03/28/2025 01:45 AM |
| 36166 | 15.0 | 3.98 | -5 | 45 | 41 | 46 | 0.00 | -90 | 7 | 03/28/2025 01:30 AM |
| 36165 | 15.1 | 3.98 | -5 | 46 | 40 | 48 | 0.00 | -90 | 8 | 03/28/2025 01:15 AM |
| 36164 | -- | 4.03 | -5 | 47 | 41 | 49 | 0.00 | -90 | 7 | 03/28/2025 01:00 AM |
| 36163 | -- | 3.98 | -5 | 46 | 41 | 48 | 0.00 | -88 | 8 | 03/28/2025 12:45 AM |
| 36162 | 15.0 | 3.98 | -5 | 46 | 41 | 47 | 0.10 | -91 | 8 | 03/28/2025 12:30 AM |
| 36161 | 15.0 | 4.03 | -5 | 46 | 41 | 48 | 0.00 | -89 | 6 | 03/28/2025 12:15 AM |
| 36160 | 15.0 | 3.98 | -5 | 46 | 41 | 48 | 0.00 | -90 | 7 | 03/28/2025 12:00 AM |
| 36159 | -- | 3.98 | -5 | 46 | 42 | 46 | 0.00 | -92 | 7 | 03/27/2025 11:30 PM |
| 36158 | -- | 3.98 | -5 | 47 | 42 | 48 | 0.00 | -90 | 6 | 03/27/2025 11:15 PM |
| 36157 | -- | 3.98 | -5 | 47 | 42 | 49 | 0.00 | -86 | 7 | 03/27/2025 11:00 PM |
| 36156 | -- | 3.98 | -5 | 47 | 42 | 48 | 0.00 | -86 | 8 | 03/27/2025 10:45 PM |
| 36155 | -- | 3.99 | -5 | 49 | 42 | 49 | 0.10 | -86 | 8 | 03/27/2025 10:30 PM |
| 36154 | -- | 4.04 | -5 | 49 | 41 | 51 | 0.00 | -85 | 7 | 03/27/2025 10:15 PM |
| 36153 | -- | 3.99 | -5 | 49 | 42 | 52 | 0.00 | -88 | 7 | 03/27/2025 10:00 PM |
| 36152 | -- | 3.99 | -5 | 49 | 42 | 51 | 0.00 | -84 | 8 | 03/27/2025 09:46 PM |
| 36151 | -- | 4.04 | -5 | 50 | 42 | 52 | 0.10 | -84 | 7 | 03/27/2025 09:30 PM |
| 36150 | 15.0 | 3.99 | -5 | 52 | 42 | 53 | 0.00 | -86 | 7 | 03/27/2025 09:15 PM |
| 36149 | 15.0 | 3.99 | -5 | 52 | 42 | 54 | 0.00 | -88 | 7 | 03/27/2025 09:00 PM |
| 36148 | 15.0 | 3.99 | -5 | 52 | 43 | 53 | 0.00 | -88 | 8 | 03/27/2025 08:45 PM |